This demonstration page uses our WeatherBlox Daily Observations layout. Learn more.

Left ArrowRight Arrow

38.20091, -84.87328

Hourly Observations for September 18, 2021

Temp ( °F °C ) Dew Point ( °F °C ) Humidity (%) Winds ( mph kmh ) Pressure ( in mb ) Visibility ( mi km ) Precip ( " mm )
12:46 am 00:46 Clear with Mist and Fog 70 21.1 68 20 93 93 N 3 6 30.11 1020 2 3 0.00 0.00
12:53 am 00:53 Clear with Mist and Fog 70 21.1 68 20 93 93 NNW 5 7 30.11 1020 2 2 0.00 0.00
12:59 am 00:59 Clear with Mist and Fog 70 21.1 68 20 93 93 NNW 3 6 30.11 1020 3 5 0.00 0.00
1:53 am 01:53 Clear with Mist and Fog 69 20.6 67 19.4 93 93 Calm 30.11 1020 3 5 0.00 0.00
2:53 am 02:53 Mostly Clear 69 20.6 68 20 96 96 Calm 30.10 1019 10 16 0.00 0.00
3:53 am 03:53 Mostly Cloudy 69 20.6 67 19.4 93 93 Calm 30.10 1019 10 16 0.00 0.00
4:53 am 04:53 Clear 69 20.6 67 19.4 93 93 Calm 30.11 1020 10 16 0.00 0.00
5:53 am 05:53 Cloudy 69 20.6 67 19.4 93 93 Calm 30.12 1020 10 16 0.00 0.00
6:53 am 06:53 Partly Cloudy 69 20.6 67 19.4 93 93 Calm 30.12 1020 10 16 0.00 0.00
7:53 am 07:53 Mostly Sunny 68 20 67 19.4 96 96 Calm 30.14 1021 10 16 0.00 0.00
8:53 am 08:53 Sunny 73 22.8 70 21.1 90 90 Calm 30.14 1021 10 16 0.00 0.00
9:53 am 09:53 Sunny 79 26.1 70 21.1 74 74 Calm 30.14 1021 10 16 0.00 0.00
10:53 am 10:53 Sunny 83 28.3 70 21.1 65 65 ENE 5 7 30.14 1021 10 16 0.00 0.00
11:53 am 11:53 Sunny 84 28.9 70 21.1 63 63 undefined N/A 30.13 1020 10 16 0.00 0.00
12:53 pm 12:53 Sunny 85 29.4 69 20.6 59 59 E 6 9 30.11 1020 10 16 0.00 0.00
1:53 pm 13:53 Mostly Cloudy 88 31.1 69 20.6 54 54 Calm 30.12 1020 10 16 0.00 0.00
2:53 pm 14:53 Mostly Sunny 87 30.6 68 20 53 53 NE 5 7 30.09 1019 10 16 0.00 0.00
3:53 pm 15:53 Sunny 87 30.6 68 20 53 53 NNE 5 7 30.08 1019 10 16 0.00 0.00
4:53 pm 16:53 Sunny 87 30.6 67 19.4 51 51 VRB 3 6 30.06 1018 10 16 0.00 0.00
5:53 pm 17:53 Mostly Sunny 84 28.9 72 22.2 67 67 SW 5 7 30.06 1018 10 16 0.00 0.00
6:53 pm 18:53 Sunny 82 27.8 73 22.8 74 74 SW 3 6 30.07 1018 10 16 0.00 0.00
7:53 pm 19:53 Clear 78 25.6 73 22.8 85 85 WSW 3 6 30.07 1018 10 16 0.00 0.00
8:53 pm 20:53 Clear 76 24.4 72 22.2 88 88 Calm 30.08 1019 10 16 0.00 0.00
9:53 pm 21:53 Clear 75 23.9 73 22.8 94 94 Calm 30.09 1019 10 16 0.00 0.00
10:53 pm 22:53 Clear 72 22.2 70 21.1 94 94 Calm 30.09 1019 10 16 0.00 0.00
11:53 pm 23:53 Clear with Mist and Fog 71 21.7 70 21.1 96 96 Calm 30.10 1019 6 10 0.00 0.00

Powered by AerisWeather